TimePST,TemperatureF,Dew PointF,Humidity,Sea Level PressureIn,VisibilityMPH,Wind Direction,Wind SpeedMPH,Gust SpeedMPH,PrecipitationIn,Events,Conditions,WindDirDegrees,DateUTC
12:20 AM,30.2,30.2,100,29.71,0.2,Calm,Calm,-,0.02,Fog-Snow,Snow,0,2012-11-21 08:20:00
12:44 AM,30.2,30.2,100,29.69,0.8,Calm,Calm,-,0.02,,Overcast,0,2012-11-21 08:44:00
12:47 AM,30.2,30.2,100,29.69,1.8,Calm,Calm,-,0.02,,Overcast,0,2012-11-21 08:47:00
12:51 AM,30.2,30.2,100,29.68,3.0,Calm,Calm,-,0.02,,Overcast,0,2012-11-21 08:51:00
12:53 AM,30.9,30.9,100,29.59,3.0,Calm,Calm,-,0.02,,Overcast,0,2012-11-21 08:53:00
12:56 AM,30.2,30.2,100,29.69,1.8,Calm,Calm,-,N/A,,Overcast,0,2012-11-21 08:56:00
12:59 AM,30.2,30.2,100,29.69,0.8,SSW,3.5,-,N/A,,Overcast,210,2012-11-21 08:59:00
1:11 AM,30.2,30.2,100,29.68,1.0,Calm,Calm,-,N/A,,Overcast,0,2012-11-21 09:11:00
1:19 AM,30.2,30.2,100,29.68,1.5,Calm,Calm,-,N/A,,Overcast,0,2012-11-21 09:19:00
1:25 AM,30.2,30.2,100,29.68,3.0,Calm,Calm,-,N/A,,Overcast,0,2012-11-21 09:25:00
1:51 AM,30.2,30.2,100,29.66,9.0,Calm,Calm,-,N/A,,Overcast,0,2012-11-21 09:51:00
1:53 AM,30.9,30.9,100,29.56,9.0,Calm,Calm,-,N/A,,Overcast,0,2012-11-21 09:53:00
2:02 AM,30.2,30.2,100,29.65,10.0,Calm,Calm,-,0.00,,Overcast,0,2012-11-21 10:02:00
2:09 AM,32.0,30.2,93,29.65,2.5,Calm,Calm,-,0.01,Snow,Light Snow,0,2012-11-21 10:09:00
2:19 AM,30.2,30.2,100,29.66,1.5,Calm,Calm,-,0.03,Snow,Light Snow,0,2012-11-21 10:19:00
2:22 AM,32.0,32.0,100,29.65,1.2,Calm,Calm,-,0.03,Snow,Light Snow,0,2012-11-21 10:22:00
2:29 AM,32.0,32.0,100,29.64,1.5,Calm,Calm,-,0.03,Snow,Light Snow,0,2012-11-21 10:29:00
2:32 AM,32.0,32.0,100,29.64,3.0,Calm,Calm,-,0.03,Snow,Light Snow,0,2012-11-21 10:32:00
2:40 AM,30.2,30.2,100,29.64,1.5,Variable,3.5,-,0.04,Snow,Light Snow,0,2012-11-21 10:40:00
2:44 AM,30.2,30.2,100,29.63,0.8,SSE,4.6,-,0.04,Snow,Light Snow,150,2012-11-21 10:44:00
2:53 AM,30.9,30.9,100,29.53,1.2,SE,5.8,-,0.04,Snow,Light Snow,140,2012-11-21 10:53:00
3:03 AM,30.2,30.2,100,29.62,0.5,Variable,5.8,-,0.00,Fog,Light Freezing Fog,0,2012-11-21 11:03:00
3:12 AM,30.2,30.2,100,29.62,0.8,Variable,4.6,-,0.00,,Mist,0,2012-11-21 11:12:00
3:53 AM,32.0,32.0,100,29.53,0.2,Calm,Calm,-,0.03,Fog-Snow,Snow,0,2012-11-21 11:53:00
4:17 AM,30.2,30.2,100,29.63,0.8,Variable,4.6,-,0.07,Snow,Light Snow,0,2012-11-21 12:17:00
4:53 AM,32.0,32.0,100,29.53,0.5,South,9.2,17.3,0.07,Fog,Fog,180,2012-11-21 12:53:00
5:44 AM,30.2,30.2,100,29.59,0.5,South,13.8,20.7,N/A,Fog,Light Freezing Fog,170,2012-11-21 13:44:00
5:53 AM,30.9,30.9,100,29.50,0.5,South,9.2,20.7,N/A,Fog,Light Freezing Fog,180,2012-11-21 13:53:00
6:05 AM,30.2,30.2,100,29.61,1.5,South,10.4,20.7,N/A,,Mostly Cloudy,180,2012-11-21 14:05:00
6:08 AM,30.2,30.2,100,29.61,3.0,South,8.1,20.7,N/A,,Mostly Cloudy,180,2012-11-21 14:08:00
6:20 AM,30.2,30.2,100,29.62,10.0,South,12.7,23.0,N/A,,Mostly Cloudy,180,2012-11-21 14:20:00
6:53 AM,30.0,30.0,100,29.53,10.0,South,10.4,23.0,0.00,,Mostly Cloudy,180,2012-11-21 14:53:00
7:09 AM,30.2,30.2,100,29.62,9.0,South,9.2,19.6,N/A,,Mostly Cloudy,190,2012-11-21 15:09:00
7:18 AM,30.2,30.2,100,29.63,9.0,South,10.4,23.0,N/A,,Overcast,190,2012-11-21 15:18:00
7:35 AM,30.2,30.2,100,29.63,2.5,South,9.2,23.0,0.00,Snow,Light Snow,190,2012-11-21 15:35:00
7:37 AM,30.2,30.2,100,29.63,1.5,SSW,12.7,23.0,0.01,Snow,Light Snow,200,2012-11-21 15:37:00
7:39 AM,30.2,30.2,100,29.63,0.8,SSW,9.2,23.0,0.01,Snow,Light Snow,200,2012-11-21 15:39:00
7:42 AM,30.2,30.2,100,29.63,0.2,SSW,8.1,23.0,0.01,Fog-Snow,Heavy Snow,210,2012-11-21 15:42:00
7:50 AM,30.2,30.2,100,29.63,0.2,Variable,6.9,-,0.03,Fog-Snow,Heavy Snow,0,2012-11-21 15:50:00
7:53 AM,30.0,30.0,100,29.55,0.2,Variable,6.9,-,0.03,Fog-Snow,Heavy Snow,0,2012-11-21 15:53:00
8:04 AM,30.2,30.2,100,29.64,0.2,SW,10.4,21.9,0.03,Fog-Snow,Heavy Snow,220,2012-11-21 16:04:00
8:53 AM,28.9,28.9,100,29.57,0.2,Variable,5.8,18.4,0.09,Fog-Snow,Light Snow,0,2012-11-21 16:53:00
9:43 AM,28.4,26.6,93,29.68,1.0,Variable,5.8,27.6,0.03,Snow,Light Snow,0,2012-11-21 17:43:00
9:46 AM,28.4,26.6,93,29.68,3.0,Variable,6.9,27.6,0.03,Snow,Light Snow,0,2012-11-21 17:46:00
9:53 AM,27.0,27.0,100,29.62,10.0,Variable,4.6,-,0.03,,Overcast,0,2012-11-21 17:53:00
10:03 AM,26.6,26.6,100,29.70,8.0,WNW,6.9,-,N/A,,Overcast,300,2012-11-21 18:03:00
10:23 AM,26.6,24.8,93,29.71,8.0,WSW,12.7,26.5,0.00,,Overcast,250,2012-11-21 18:23:00
10:30 AM,26.6,24.8,93,29.72,2.5,SW,8.1,33.4,0.00,Snow,Light Snow,230,2012-11-21 18:30:00
10:33 AM,26.6,24.8,93,29.72,1.2,SW,9.2,33.4,0.00,Snow,Light Snow,220,2012-11-21 18:33:00
10:41 AM,26.6,24.8,93,29.72,0.5,SW,10.4,27.6,0.01,Fog-Snow,Light Snow,230,2012-11-21 18:41:00
10:46 AM,26.6,24.8,93,29.73,1.8,WSW,8.1,27.6,0.01,Snow,Light Snow,240,2012-11-21 18:46:00
10:48 AM,26.6,24.8,93,29.73,3.0,WSW,11.5,24.2,0.01,Snow,Light Snow,240,2012-11-21 18:48:00
10:53 AM,26.1,25.0,96,29.80,1.0,WSW,11.5,23.0,0.02,Snow,Light Snow,250,2012-11-21 18:53:00
11:00 AM,26.6,24.8,93,29.72,0.5,WSW,9.2,23.0,0.02,Fog-Snow,Light Snow,240,2012-11-21 19:00:00
11:09 AM,26.6,24.8,93,29.72,1.0,SW,13.8,28.8,0.02,Snow,Light Snow,230,2012-11-21 19:09:00
11:18 AM,24.8,24.8,100,29.73,2.0,SW,16.1,28.8,0.02,Snow,Light Snow,230,2012-11-21 19:18:00
11:23 AM,24.8,24.8,100,29.72,1.8,SW,15.0,33.4,0.02,Snow,Light Snow,220,2012-11-21 19:23:00
11:30 AM,24.8,24.8,100,29.74,1.0,SW,16.1,32.2,0.02,Snow,Light Snow,230,2012-11-21 19:30:00
11:38 AM,24.8,24.8,100,29.74,1.8,SW,12.7,32.2,0.02,Snow,Light Snow,230,2012-11-21 19:38:00
11:46 AM,24.8,23.0,93,29.75,3.0,WSW,12.7,28.8,0.03,Snow,Light Snow,240,2012-11-21 19:46:00
11:53 AM,25.0,24.1,96,29.81,1.8,WSW,13.8,25.3,0.03,Snow,Light Snow,240,2012-11-21 19:53:00
11:55 AM,24.8,24.8,100,29.74,1.2,SW,12.7,21.9,0.01,Snow,Light Snow,230,2012-11-21 19:55:00
12:07 PM,24.8,24.8,100,29.75,0.8,SW,15.0,25.3,0.01,Snow,Light Snow,220,2012-11-21 20:07:00
12:21 PM,24.8,24.8,100,29.75,1.0,WSW,9.2,20.7,0.02,Snow,Light Snow,250,2012-11-21 20:21:00
12:26 PM,24.8,24.8,100,29.75,1.5,WSW,11.5,26.5,0.02,Snow,Light Snow,250,2012-11-21 20:26:00
12:30 PM,24.8,24.8,100,29.75,2.0,WSW,11.5,26.5,0.02,Snow,Light Snow,240,2012-11-21 20:30:00
12:35 PM,24.8,24.8,100,29.75,3.0,SW,11.5,23.0,0.02,Snow,Light Snow,230,2012-11-21 20:35:00
12:37 PM,24.8,24.8,100,29.75,1.5,WSW,9.2,23.0,0.02,Snow,Light Snow,240,2012-11-21 20:37:00
12:46 PM,24.8,24.8,100,29.75,0.2,SW,9.2,21.9,0.03,Fog-Snow,Snow,230,2012-11-21 20:46:00
12:53 PM,25.0,24.1,96,29.84,0.2,SW,8.1,18.4,0.04,Fog-Snow,Snow,220,2012-11-21 20:53:00
1:06 PM,24.8,24.8,100,29.75,0.5,SW,8.1,18.4,0.01,Fog-Snow,Light Snow,220,2012-11-21 21:06:00
1:13 PM,24.8,24.8,100,29.76,0.2,SW,8.1,18.4,0.01,Fog-Snow,Snow,220,2012-11-21 21:13:00
1:29 PM,24.8,24.8,100,29.78,0.8,Variable,6.9,-,0.03,Snow,Light Snow,0,2012-11-21 21:29:00
1:35 PM,24.8,24.8,100,29.78,0.8,West,9.2,-,0.03,Snow,Light Snow,280,2012-11-21 21:35:00
1:44 PM,24.8,24.8,100,29.79,0.8,WSW,8.1,19.6,0.04,Snow,Light Snow,250,2012-11-21 21:44:00
1:48 PM,24.8,23.0,93,29.79,1.5,WSW,12.7,26.5,0.04,Snow,Light Snow,250,2012-11-21 21:48:00
1:50 PM,24.8,23.0,93,29.79,4.0,WSW,10.4,26.5,0.04,Snow,Light Snow,250,2012-11-21 21:50:00
1:53 PM,24.1,23.0,96,29.88,9.0,WSW,10.4,26.5,0.04,,Overcast,250,2012-11-21 21:53:00
2:04 PM,24.8,21.2,86,29.79,10.0,West,12.7,25.3,0.00,Rain,Light Freezing Rain,260,2012-11-21 22:04:00
2:14 PM,24.8,21.2,86,29.79,10.0,WSW,10.4,25.3,0.00,Rain,Light Freezing Rain,240,2012-11-21 22:14:00
2:29 PM,24.8,23.0,93,29.80,8.0,WSW,13.8,27.6,0.00,Snow,Light Snow,240,2012-11-21 22:29:00
2:53 PM,24.1,21.9,91,29.91,10.0,WSW,8.1,-,0.00,,Overcast,250,2012-11-21 22:53:00
3:07 PM,24.8,21.2,86,29.82,9.0,WSW,9.2,19.6,0.00,Snow,Light Snow,240,2012-11-21 23:07:00
3:25 PM,24.8,21.2,86,29.83,2.0,SW,10.4,25.3,0.01,Snow,Light Snow,220,2012-11-21 23:25:00
3:31 PM,24.8,23.0,93,29.83,5.0,WSW,9.2,21.9,0.01,Snow,Light Snow,240,2012-11-21 23:31:00
3:40 PM,24.8,21.2,86,29.83,9.0,WSW,9.2,21.9,0.01,Rain,Light Freezing Rain,250,2012-11-21 23:40:00
3:50 PM,24.8,21.2,86,29.84,6.0,West,8.1,27.6,0.01,Snow,Light Snow,260,2012-11-21 23:50:00
3:53 PM,24.1,21.9,91,29.93,4.0,WSW,9.2,20.7,0.01,Snow,Light Snow,240,2012-11-21 23:53:00
4:03 PM,24.8,21.2,86,29.84,6.0,West,9.2,26.5,0.01,Snow,Light Snow,270,2012-11-22 00:03:00
4:11 PM,24.8,21.2,86,29.84,4.0,SW,8.1,21.9,0.01,Snow,Light Snow,230,2012-11-22 00:11:00
4:23 PM,24.8,23.0,93,29.85,4.0,SW,9.2,17.3,0.01,Snow,Light Snow,230,2012-11-22 00:23:00
4:33 PM,24.8,21.2,86,29.85,2.5,SW,11.5,26.5,0.01,Snow,Light Snow,230,2012-11-22 00:33:00
4:36 PM,24.8,21.2,86,29.86,4.0,WSW,11.5,26.5,0.01,Snow,Light Snow,240,2012-11-22 00:36:00
4:48 PM,24.8,21.2,86,29.86,9.0,WSW,9.2,20.7,0.01,Rain,Light Freezing Rain,240,2012-11-22 00:48:00
4:53 PM,24.1,21.9,91,29.94,9.0,WSW,9.2,20.7,0.01,Rain,Light Freezing Rain,250,2012-11-22 00:53:00
5:00 PM,24.8,21.2,86,29.86,4.0,WSW,10.4,17.3,0.01,Snow,Light Snow,240,2012-11-22 01:00:00
5:11 PM,23.0,21.2,93,29.85,2.0,SW,10.4,24.2,0.01,Snow,Light Snow,220,2012-11-22 01:11:00
5:15 PM,24.8,21.2,86,29.85,1.2,SW,11.5,24.2,0.01,Snow,Light Snow,220,2012-11-22 01:15:00
5:26 PM,24.8,21.2,86,29.86,0.8,SW,9.2,21.9,0.01,Snow,Light Snow,220,2012-11-22 01:26:00
5:43 PM,24.8,23.0,93,29.86,0.5,Variable,5.8,26.5,0.02,Fog-Snow,Snow,0,2012-11-22 01:43:00
5:53 PM,24.1,23.0,96,29.95,0.5,SW,8.1,21.9,0.03,Fog-Snow,Snow,220,2012-11-22 01:53:00
6:01 PM,24.8,23.0,93,29.86,0.2,SW,9.2,25.3,0.01,Fog-Snow,Snow,220,2012-11-22 02:01:00
6:13 PM,24.8,23.0,93,29.87,1.0,WSW,12.7,24.2,0.02,Snow,Light Snow,240,2012-11-22 02:13:00
6:16 PM,24.8,23.0,93,29.86,2.0,SW,13.8,25.3,0.02,Snow,Light Snow,230,2012-11-22 02:16:00
6:20 PM,24.8,23.0,93,29.86,5.0,SW,10.4,27.6,0.02,Snow,Light Snow,220,2012-11-22 02:20:00
6:33 PM,24.8,23.0,93,29.86,1.8,SW,10.4,24.2,0.02,Snow,Light Snow,230,2012-11-22 02:33:00
6:36 PM,24.8,23.0,93,29.86,1.2,SW,8.1,20.7,0.02,Snow,Light Snow,220,2012-11-22 02:36:00
6:46 PM,24.8,23.0,93,29.86,0.5,SSW,8.1,27.6,0.03,Fog-Snow,Snow,210,2012-11-22 02:46:00
6:53 PM,24.1,23.0,96,29.95,0.2,SW,15.0,27.6,0.03,Fog-Snow,Snow,220,2012-11-22 02:53:00
7:09 PM,24.8,23.0,93,29.86,0.2,SSW,11.5,25.3,0.02,Fog-Snow,Snow,210,2012-11-22 03:09:00
7:17 PM,24.8,23.0,93,29.87,0.5,SW,9.2,23.0,0.03,Fog-Snow,Snow,230,2012-11-22 03:17:00
7:33 PM,24.8,23.0,93,29.86,1.0,WSW,15.0,29.9,0.04,Snow,Light Snow,240,2012-11-22 03:33:00
7:38 PM,24.8,23.0,93,29.86,0.8,WSW,11.5,29.9,0.05,Snow,Light Snow,240,2012-11-22 03:38:00
7:47 PM,23.0,23.0,100,29.88,0.2,West,8.1,24.2,0.06,Fog-Snow,Heavy Snow,280,2012-11-22 03:47:00
7:53 PM,23.0,23.0,100,29.97,0.2,Variable,6.9,24.2,0.08,Fog-Snow,Heavy Snow,0,2012-11-22 03:53:00
8:17 PM,24.8,23.0,93,29.89,0.8,West,9.2,17.3,0.05,Snow,Light Snow,280,2012-11-22 04:17:00
8:26 PM,23.0,21.2,93,29.89,1.5,WNW,12.7,32.2,0.06,Snow,Light Snow,290,2012-11-22 04:26:00
8:29 PM,23.0,21.2,93,29.88,3.0,West,10.4,32.2,0.06,Snow,Light Snow,270,2012-11-22 04:29:00
8:50 PM,23.0,21.2,93,29.89,1.8,WNW,12.7,33.4,0.06,Snow,Light Snow,300,2012-11-22 04:50:00
8:53 PM,23.0,21.0,92,30.00,1.0,WNW,8.1,29.9,0.06,Snow,Light Snow,300,2012-11-22 04:53:00
8:55 PM,23.0,21.2,93,29.90,0.8,WNW,9.2,29.9,0.00,Snow,Light Snow,300,2012-11-22 04:55:00
9:02 PM,23.0,21.2,93,29.91,0.2,WNW,9.2,20.7,0.02,Fog-Snow,Snow,300,2012-11-22 05:02:00
9:13 PM,23.0,21.2,93,29.92,0.5,Variable,6.9,19.6,0.05,Fog-Snow,Snow,0,2012-11-22 05:13:00
9:28 PM,21.2,21.2,100,29.93,1.2,West,9.2,21.9,0.06,Snow,Light Snow,260,2012-11-22 05:28:00
9:35 PM,21.2,21.2,100,29.94,1.2,Variable,5.8,23.0,0.06,Snow,Light Snow,0,2012-11-22 05:35:00
9:43 PM,21.2,21.2,100,29.93,1.0,WSW,8.1,23.0,0.06,Snow,Light Snow,250,2012-11-22 05:43:00
9:53 PM,21.9,21.0,96,30.06,1.0,West,9.2,24.2,0.07,Snow,Light Snow,260,2012-11-22 05:53:00
10:02 PM,21.2,19.4,93,29.94,1.5,West,8.1,24.2,0.00,Snow,Light Snow,260,2012-11-22 06:02:00
10:06 PM,21.2,21.2,100,29.94,2.5,WSW,8.1,20.7,0.00,Snow,Light Snow,250,2012-11-22 06:06:00
10:11 PM,21.2,21.2,100,29.95,1.2,West,8.1,20.7,0.00,Snow,Light Snow,260,2012-11-22 06:11:00
10:37 PM,21.2,19.4,93,29.96,1.8,Variable,5.8,26.5,0.02,Snow,Light Snow,0,2012-11-22 06:37:00
10:45 PM,21.2,19.4,93,29.97,0.8,West,8.1,-,0.03,Snow,Light Snow,270,2012-11-22 06:45:00
10:53 PM,21.9,19.9,92,30.11,1.0,Variable,6.9,24.2,0.04,Snow,Light Snow,0,2012-11-22 06:53:00
11:08 PM,21.2,19.4,93,29.98,2.0,Variable,6.9,-,0.00,Snow,Light Snow,0,2012-11-22 07:08:00
11:27 PM,21.2,19.4,93,30.00,4.0,Variable,6.9,21.9,0.00,Snow,Light Snow,0,2012-11-22 07:27:00
11:46 PM,21.2,19.4,93,30.01,9.0,West,12.7,28.8,0.00,Rain,Light Freezing Rain,280,2012-11-22 07:46:00
11:53 PM,21.0,19.0,92,30.16,10.0,West,8.1,28.8,0.00,Rain,Light Freezing Rain,260,2012-11-22 07:53:00